Regional Weather Roundup
Issued by NWS Portland, ME

Current Version | Previous Version | Text Only | Print | Product List | Glossary On
Versions: 1 2 3 4 5 6 7 8 9 10 11 12 13 14 15 16 17 18 19 20 21 22 23 24 25 26 27 28 29 30 31 32 33 34 35 36 37 38 39 40 41 42 43 44 45 46 47 48 49 50
724 ASUS41 KGYX 210210 RWRGYX WEATHER ROUNDUP FOR MAINE AND NEW HAMPSHIRE NATIONAL WEATHER SERVICE GRAY ME 1000 PM EDT TUE APR 20 2021 MEZ002-005-006-010-012-015-018-020-021-024-026-027-029-210300- MAINE CITY SKY/WX TMP DP RH WIND PRES REMARKS PORTLAND PTCLDY 53 36 52 W3 29.89R SANFORD MOCLDY 52 37 56 W3 29.90R BAR HARBOR CLEAR 46 41 82 NW3 29.87R WISCASSET CLEAR 49 37 63 CALM 29.89R ROCKLAND CLEAR 53 35 50 W7 29.87R FRYEBURG CLEAR 49 25 39 W5 29.88R LEWISTONAUBURN CLEAR 53 29 39 W3 29.88R AUGUSTA CLEAR 50 32 50 W6 29.88R WATERVILLE CLEAR 46 34 62 W6 29.86R BANGOR PTCLDY 52 37 56 VRB5 29.87R GREENVILLE N/A 43 26 51 VRB3 29.82R MILLINOCKET PTCLDY 42 34 73 W3 29.86R HOULTON MOCLDY 39 33 79 CALM 29.83R PRESQUE ISLE PTCLDY 39 34 82 CALM 29.82R FRENCHVILLE PTCLDY 40 26 57 W9 29.78R CARIBOU PTCLDY 41 32 70 SW5 29.80R $$ NHZ002-005-008-009-011-012-014-210300- NEW HAMPSHIRE CITY SKY/WX TMP DP RH WIND PRES REMARKS PORTSMOUTH MOCLDY 56 33 41 W9 29.91R ROCHESTER MOCLDY 54 35 48 VRB3 29.89R NASHUA PTCLDY 55 38 52 N6 29.92R MANCHESTER MOCLDY 57 36 45 W5 29.90R CONCORD CLOUDY 53 34 48 W3 29.92R LACONIA MOCLDY 47 36 65 CALM 29.91R PLYMOUTH FAIR 45 29 54 NW5 29.91R BERLIN CLOUDY 45 30 55 CALM 29.88R WHITEFIELD CLOUDY 43 32 65 SW5 29.91R JAFFREY CLOUDY 51 36 56 CALM 29.92R KEENE CLOUDY 46 38 73 N6 29.93R LEBANON MOCLDY 42 33 70 CALM 29.92R MT WASHINGTON MOCLDY 25 14 63 W70G79 N/A WCI 1 $$ VTZ005-007-008-210300- VERMONT CITY SKY/WX TMP DP RH WIND PRES REMARKS ST JOHNSBURY N/A 47 30 51 MISG 29.90R MONTPELIER CLOUDY 43 25 49 N10 29.94F BURLINGTON CLOUDY 47 26 44 NW9 29.94R $$ MAZ007-012-024-CTZ003-RIZ002-NYZ038-NYZ072-210300- SOUTHERN NEW ENGLAND AND NY CITY SKY/WX TMP DP RH WIND PRES REMARKS BOSTON MOCLDY 65 42 43 SW7 29.91R WORCESTER CLEAR 54 38 54 NW5 29.91R NANTUCKET CLEAR 51 47 86 SW14 29.98R PROVIDENCE CLEAR 57 41 55 SW9 29.92R HARTFORD MOCLDY 55 40 56 N6 29.91R ALBANY MOCLDY 43 32 65 NW5 29.96S NEW YORK CITY PTCLDY 64 39 39 S16 29.89R $$ ANZ081-ANZ082-ANZ150-NHZ014-MEZ023>029-210300- COASTAL MARINE OBSERVATIONS STATION/POSITION TIME TEMP WIND PRES WAVE AIR SEA DIR/SP/G HT/PER (UTC) (F) (DEG/KT/KT) (MB) (FT/S) MOUNT DESERT ROC 0200 220/ 19/ 21 1011.5R ISLE OF SHOALS 0200 58 290/ 9/ 10 1012.4R JEFFREYS LEDGE 0156 45 N/A 3/ 5 CASHES LEDGE BUO 0150 50 45 1013.2R 3/ 5 $$ .............KEY.............. WCI - WIND CHILL TC - TEMPERATURE IN CELSIUS VSB - VISIBILITY IN MILES HX - HEAT INDEX FAIR- INDICATES FEW OR NO CLOUDS BELOW 12,000 FT, WITH NO SIGNIFICANT WEATHER AND/OR OBSTRUCTIONS TO VISIBILITY.

USA.gov is the U.S. government's official web portal to all federal, state and local government web resources and services.